カタログに戻る

FFLY-1

運用中科学SSO
NORAD 65320·PAYLOAD·🇺🇸 United States

打ち上げ Aug 26, 2025 から Vandenberg Space Force Base

Loading…

次のパス (今後24時間)

TLE

最新Source: Space-Track

元期: Sep 14, 2026, 12:36 UTC

1 65320U 25188F   26257.52524091  .00000661  00000-0  69316-4 0  9992
2 65320  97.7311 331.2258 0008425 232.6575 127.3878 14.92831595 57239

AllMySatでFFLY-1をリアルタイム追跡

Download on the App Store